Regional Weather Roundup
Issued by NWS

Home | Current Version | Previous Version | Graphics & Text | Print | Product List | Glossary On
Versions: 1 2 3 4 5 6 7 8 9 10 11 12 13 14 15 16 17 18 19 20 21 22 23 24 25 26 27 28 29 30 31 32 33 34 35 36 37 38 39 40 41 42 43 44 45 46 47 48 49 50
778
ASUS45 KABQ 252001
RWRNM
NEW MEXICO REGIONAL WEATHER ROUNDUP
NATIONAL WEATHER SERVICE ALBUQUERQUE NM
200 PM MDT MON JUL 25 2016

NOTE: "FAIR" MEANS FEW OR NO CLOUDS BELOW 12,000 FEET AGL WITH NO
       SIGNIFICANT WEATHER OR OBSTRUCTIONS TO VISION.

      THIS PRODUCT IS RELEASED AS TWO VERSIONS.  ONE VERSION NEAR
      THE TOP OF THE HOUR CONTAINING PRELIMINARY DATA FROM ALBUQUERQUE
      AND OTHER STATIONS.  A FINAL VERSION WITH ADDITIONAL DATA IS
      ISSUED ABOUT 10 MINUTES AFTER THE HOUR.

NMZ501-503-504-510>518-252100-
NORTHWEST PLATEAU/NORTHCENTRAL MOUNTAINS

CITY           SKY/WX    TMP DP  RH WIND       PRES   REMARKS
FARMINGTON     FAIR      91  41  17 SE7       30.16F
LOS ALAMOS     FAIR      83  40  21 NW8       30.33F
SANTA FE       FAIR      90  43  19 VRB7      30.25F
TAOS           FAIR      84  41  21 NW5       30.31F
ANGEL FIRE     HVY RAIN  60  51  72 W7        30.49R

$$
NMZ402-403-502-505>509-252100-
WESTCENTRAL MOUNTAINS/SOUTHWEST MOUNTAINS

CITY           SKY/WX    TMP DP  RH WIND       PRES   REMARKS
GALLUP         FAIR      87  44  22 CALM      30.25F
GRANTS         FAIR      89  41  19 SE10G17   30.28F
SILVER CITY    FAIR      91  49  23 S12G17    30.18F

$$
NMZ407-409-411-412-252100-
SOUTHERN DESERTS

CITY           SKY/WX    TMP DP  RH WIND       PRES   REMARKS
LORDSBURG      FAIR      93  50  22 W7        30.10F
DEMING         PTSUNNY   95  51  22 CALM      30.08F
LAS CRUCES     PTSUNNY   96  46  17 E13G20    30.11F
ALAMOGORDO     FAIR      95  50  21 SW6       30.08F
T OR C         FAIR      94  49  21 VRB5      30.12F

$$
NMZ519>523-252100-
CENTRAL VALLEYS/CENTRAL HIGHLANDS

CITY           SKY/WX    TMP DP  RH WIND       PRES   REMARKS
ALBUQUERQUE    FAIR      91  45  20 VRB3      30.18F
DOUBLE EAGLE     N/A     90  48  24 SW6       30.23F
MORIARTY ARPT  FAIR      88  47  24 SE5       30.27F
CLINES CORNERS FAIR      83  49  30 CALM      30.33F
BELEN          FAIR      91  46  20 S6        30.17F
SOCORRO        FAIR      92  45  19 S3        30.14F

$$
NMZ524>526-539-540-252100-
SOUTHCENTRAL MOUNTAINS

CITY           SKY/WX    TMP DP  RH WIND       PRES   REMARKS
RUIDOSO          N/A     84  45  24 E18G28    30.33F

$$
NMZ527>531-252100-
NORTHEAST HIGHLANDS/NORTHEAST PLAINS

CITY           SKY/WX    TMP DP  RH WIND       PRES   REMARKS
LAS VEGAS      PTSUNNY   80  51  36 S10       30.32S
RATON          FAIR      84  51  31 S7        30.26F
CLAYTON        FAIR      88  61  40 E14       30.20F

$$
NMZ532>537-252100-
EASTCENTRAL PLAINS

CITY           SKY/WX    TMP DP  RH WIND       PRES   REMARKS
TUCUMCARI      FAIR      94  54  25 SE8       30.09F
CANNON AFB     MOSUNNY   93  55  27 VRB3      30.12F
CLOVIS AIRPORT FAIR      93  57  29 NE6       30.12F

$$
NMZ028-029-538-252100-
SOUTHEAST PLAINS

CITY           SKY/WX    TMP DP  RH WIND       PRES   REMARKS
ROSWELL        FAIR      98  50  19 S13G18    30.06F HX  95
ARTESIA        FAIR      95  57  28 VRB7G17   30.07F
CARLSBAD       FAIR      98  55  23 E12G23    30.03F HX  96
HOBBS          PTSUNNY   95  54  24 SE10G16   30.08F


$$




USA.gov is the U.S. government's official web portal to all federal, state and local government web resources and services.